Location: Zagreb
(45.8000°N, 16.0000°E)
Time: 09:32:29
(UTC+02:00)

Vanguard 2 Rocket - All Passes

Search period start: 15 July 2024 00:00
Search period end: 25 July 2024 00:00
Orbit: 555 x 3303 km, 32.9° (Epoch: 14 July)

Date Brightness Start Highest point End Pass type
(mag) Time Alt. Az. Time Alt. Az. Time Alt. Az.
15 Jul - 00:35:07 10° WSW 00:45:24 43° S 01:01:27 10° SE visible
15 Jul - 02:48:50 10° W 03:00:30 30° SSW 03:15:43 10° SSE visible
15 Jul - 05:10:23 10° WSW 05:15:14 11° SW 05:20:19 10° SSW daylight
15 Jul - 19:16:58 10° SE 19:17:19 10° SE 19:17:40 10° SE daylight
15 Jul - 21:22:11 10° SW 21:28:37 32° SSE 21:38:54 10° ESE visible
15 Jul - 23:33:00 10° WSW 23:41:52 43° S 23:56:25 10° ESE visible
16 Jul - 01:45:41 10° WSW 01:56:33 34° SSW 02:12:04 10° SE visible
16 Jul - 04:02:23 10° WSW 04:11:29 17° SW 04:22:00 10° S visible
16 Jul - 20:21:18 10° SSW 20:26:19 23° SSE 20:33:38 10° ESE daylight
16 Jul - 22:31:12 10° WSW 22:38:43 40° S 22:51:15 10° ESE visible
17 Jul - 00:43:04 10° WSW 00:52:48 38° SSW 01:07:46 10° SE visible
17 Jul - 02:57:35 10° WSW 03:07:38 23° SSW 03:20:24 10° SSE visible
17 Jul - 19:21:23 10° S 19:24:22 14° SE 19:28:01 10° ESE daylight
17 Jul - 21:29:42 10° SW 21:35:59 34° SSE 21:46:09 10° ESE visible
17 Jul - 23:40:52 10° WSW 23:49:20 39° S 00:03:01 10° SE visible
18 Jul - 01:54:02 10° WSW 02:03:51 27° SSW 02:17:26 10° SSE visible
18 Jul - 04:15:34 10° SW 04:18:31 11° SW 04:21:38 10° SSW visible
18 Jul - 20:28:33 10° SSW 20:33:36 26° SSE 20:41:11 10° ESE daylight
18 Jul - 22:38:59 10° WSW 22:46:12 38° S 22:58:06 10° ESE visible
19 Jul - 00:51:12 10° WSW 01:00:12 31° SSW 01:13:37 10° SE visible
19 Jul - 03:07:23 10° WSW 03:14:49 16° SSW 03:23:40 10° S visible
19 Jul - 19:27:57 10° S 19:31:33 17° SSE 19:36:16 10° ESE daylight
19 Jul - 21:37:23 10° SW 21:43:26 34° S 21:53:14 10° ESE visible
19 Jul - 23:48:52 10° WSW 23:56:48 33° S 00:09:17 10° SE visible
20 Jul - 02:02:55 10° WSW 02:11:08 20° SSW 02:21:55 10° S visible
20 Jul - 20:36:01 10° SW 20:40:59 28° SSE 20:48:32 10° ESE daylight
20 Jul - 22:46:52 10° WSW 22:53:42 34° S 23:04:43 10° SE visible
21 Jul - 00:59:39 10° WSW 01:07:36 24° SSW 01:18:52 10° SSE visible
21 Jul - 19:35:01 10° SSW 19:38:50 20° SSE 19:44:01 10° ESE daylight
21 Jul - 21:45:09 10° WSW 21:50:55 32° S 22:00:08 10° ESE visible
21 Jul - 23:57:03 10° WSW 00:04:17 27° SSW 00:15:06 10° SE visible
22 Jul - 02:13:15 10° SW 02:18:28 13° SSW 02:24:37 10° S visible
22 Jul - 18:34:49 10° S 18:36:52 13° SSE 18:39:14 10° SE daylight
22 Jul - 20:43:38 10° SW 20:48:26 28° S 20:55:42 10° ESE daylight
22 Jul - 22:54:54 10° WSW 23:01:13 28° S 23:10:59 10° SE visible
23 Jul - 01:08:47 10° WSW 01:15:02 17° SSW 01:23:06 10° S visible
23 Jul - 19:42:23 10° SW 19:46:13 22° SSE 19:51:29 10° ESE daylight
23 Jul - 21:53:02 10° WSW 21:58:27 28° S 22:06:46 10° SE visible
24 Jul - 00:05:39 10° WSW 00:11:47 20° SSW 00:20:14 10° SSE visible
24 Jul - 18:41:30 10° SSW 18:44:10 15° SSE 18:47:22 10° ESE daylight
24 Jul - 20:51:24 10° SW 20:55:57 26° S 21:02:39 10° SE daylight
24 Jul - 23:03:11 10° WSW 23:08:45 22° SSW 23:16:46 10° SSE visible
